Weather in Ushcherpye

Russia / Bryansk Oblast     52°42′54″N   31°53′10″E
temp.,
°C
wind,
m/s
gust,
m/s
humid.,
%
clouds,
%
prec.,
mm/h
press.,
hPa
HPBL,
m
11 may, tue
tue1100:00+7ene34730 0.0 102559
03:00+6ne46780 0.0 102683
06:00+6ne38790 0.0 1025135
09:00+12ne58640 0.0 1025459
12:00+17ne56561 0.0 1023746
15:00+19ne67542 0.0 10211044
18:00+20ne58650 0.0 10201002
21:00+14e410895 0.0 1021185
12 may, wed
wed1200:00+12ese5118752 0.0 1022543
03:00+8e411942 0.0 1022329
06:00+6ese411910 0.0 1023366
09:00+11ese510710 0.0 1023824
12:00+15e675950 0.0 10211629
15:00+15ene575594 0.1 10191792
18:00+14ene5865100 0.3 1017734
21:00+10e3880100 0.6 1016237
13 may, thu
thu1300:00+7e369454 0.1 1014127
03:00+8e269196 0.1 1013235
06:00+8se4695100 0.1 1012312
09:00+9se688973 0.3 1013564
12:00+11se5671100 0.4 10131127
15:00+13se576597 0.4 10121092
18:00+13sse5970100 0.3 1012811
21:00+9se48877 0.3 1013131
14 may, fri
fri1400:00+10se51173100 0.0 1013291
03:00+11ese4976100 0.0 1012219
06:00+10ese51281100 0.1 1011350
09:00+14se6118882 0.5 1010527
12:00+19se686958 0.0 10091203
15:00+21sse696475 1.2 10081476
18:00+20sse477599 1.6 1007919
21:00+15s48919 6.4 1007131
15 may, sat
sat1500:00+13s35925 0.0 100690
03:00+11ssw369637 0.1 1007119
06:00+12ssw3795100 0.3 1007249
09:00+14sw688868 0.3 1008636
12:00+18sw686031 0.1 10091618
15:00+19wsw6860100 0.1 10091768
18:00+18sw47674 0.1 10091175
21:00+12wsw34895 0.2 101153